Flag for Gaza Strip Weather past 2 weeks in Gaza, Gaza Strip

Now
59 °F

Passing clouds.


Feels Like: 58 °F
Forecast: 62 / 74 °F
Wind: 6 mph from South

Location: Ben Gurion International Airport

Current Time: Apr 2, 2015 at 3:42:30 AM

Latest Report: Apr 2, 2015 at 2:50 AM


Visibility: N/A

Pressure: 30.01 "Hg

Humidity: 88%

Dew point: 55 °F

Location of GazaLocation

Historic Weather in Gaza — Graph

°F

Gaza temperature yesterday

Maximum temperature yesterday: 68 °F (at 3:20 PM)
Minimum temperature yesterday: 59 °F (at 8:50 AM)
Average temperature yesterday: 63 °F

Past Weeks' High & Low Weather Summary

 TemperatureHumidityPressure
High90 °F (Mar 27, 1:20 PM)94% (Apr 1, 8:50 AM)30.18 "Hg (Apr 1, 8:50 AM)
Low48 °F (Mar 23, 5:50 AM)17% (Mar 27, 1:20 PM)29.62 "Hg (Mar 28, 4:50 AM)
Average64 °F59%29.98 "Hg
* Reported Mar 18 1:20 AM — Apr 2 2:20 AM, Gaza, Weather by CustomWeather, © 2015

Note: Actual official high and low records may vary slightly from our data, if they occured in-between our weather recording intervals... More about our weather records

Advertising

Gaza weather history for previous 24 hours

 ConditionsComfort  
Time TempWeatherWind HumidityBarometerVisibility
2:20 AM
Thu, Apr 2
59 °FPassing clouds.6 mph88%30.01 "HgN/A
1:50 AM59 °FPassing clouds.6 mph88%30.01 "HgN/A
1:20 AM59 °FPassing clouds.6 mph88%30.04 "HgN/A
12:50 AM61 °FPassing clouds.6 mph83%30.04 "HgN/A
12:20 AM61 °FPassing clouds.5 mph83%30.04 "HgN/A
11:50 PM
Wed, Apr 1
61 °FPassing clouds.7 mph83%30.04 "HgN/A
11:20 PM61 °FPassing clouds.2 mph83%30.04 "HgN/A
10:50 PM61 °FPassing clouds.2 mph83%30.04 "HgN/A
10:20 PM63 °FPassing clouds.2 mph77%30.04 "HgN/A
9:50 PM63 °FPassing clouds.2 mph77%30.04 "HgN/A
9:20 PM63 °FPassing clouds.3 mph77%30.04 "HgN/A
8:50 PM63 °FPassing clouds.3 mph77%30.01 "HgN/A
8:20 PM63 °FPassing clouds.3 mph77%30.01 "HgN/A
7:50 PM63 °FPassing clouds.6 mph77%30.01 "HgN/A
7:20 PM63 °FScattered clouds.8 mph77%30.01 "HgN/A
6:50 PM64 °FScattered clouds.8 mph73%30.01 "HgN/A
6:20 PM64 °FBroken clouds.9 mph73%30.01 "HgN/A
5:50 PM64 °FBroken clouds.8 mph73%30.01 "HgN/A
5:20 PM64 °FBroken clouds.12 mph68%29.98 "HgN/A
4:50 PM66 °FBroken clouds.12 mph68%29.98 "HgN/A
4:20 PM66 °FPartly sunny.12 mph64%29.98 "HgN/A
3:50 PM66 °FPartly sunny.14 mph68%29.98 "HgN/A
3:20 PM68 °FScattered clouds.13 mph64%29.95 "HgN/A
2:50 PM66 °FScattered clouds.13 mph68%29.98 "HgN/A
2:20 PM66 °FBroken clouds.13 mph68%29.98 "HgN/A
1:50 PM66 °FBroken clouds.12 mph68%29.98 "HgN/A
1:20 PM64 °FBroken clouds.14 mph73%29.98 "HgN/A
12:50 PM66 °FScattered clouds.15 mph68%29.98 "HgN/A
12:20 PM64 °FScattered clouds.16 mph78%29.98 "HgN/A
11:50 AM64 °FLight rain. Broken clouds.13 mph78%29.98 "HgN/A
11:20 AM64 °FScattered clouds.14 mph73%29.98 "HgN/A
10:50 AM66 °FScattered clouds.13 mph68%29.95 "HgN/A
10:20 AM64 °FScattered clouds.15 mph78%29.95 "HgN/A
9:50 AM63 °FLight rain. Broken clouds.14 mph83%29.95 "HgN/A
9:20 AM61 °FLight rain. Broken clouds.8 mph94%29.95 "HgN/A
8:50 AM59 °FRain. Mostly cloudy.13 mph94%29.92 "Hg2 mi
8:20 AM61 °FScattered clouds.9 mph83%29.92 "HgN/A
7:50 AM61 °FLight rain. Broken clouds.12 mph83%29.92 "HgN/A
7:20 AM61 °FPartly cloudy.7 mph83%29.89 "HgN/A
6:50 AM61 °FPassing clouds.6 mph77%29.89 "HgN/A
6:20 AM61 °FLight rain. Partly cloudy.7 mph77%29.86 "HgN/A
5:50 AM61 °FLight rain. Passing clouds.10 mph77%29.86 "HgN/A
5:20 AM63 °FPassing clouds.13 mph73%29.86 "HgN/A
4:50 AM63 °FPassing clouds.12 mph73%29.86 "HgN/A
4:20 AM63 °FPassing clouds.8 mph68%29.83 "HgN/A
3:50 AM63 °FPassing clouds.6 mph64%29.83 "HgN/A
3:20 AM61 °FPassing clouds.6 mph68%29.83 "HgN/A
Weather by CustomWeather, © 2015

See weather overviewHow to use our weather pages